Location: Sternwarte ZA, Rosenfeld-Brittheim
(48.2889°N, 8.6789°E)
Time: 19:42:12
(UTC+02:00)

ISS - Pass Details

Date: 19 July 2019
Orbit: 409 x 418 km, 51.6° (Epoch: 20 July)

Event Time Altitude Azimuth Distance (km) Brightness Sun altitude
Rises 00:38:34 0° 272° (W) 2,350 0.2 -19.8°
Reaches altitude 10° 00:40:42 10° 278° (W) 1,487 -0.7 -19.8°
Maximum altitude 00:43:57 47° 354° (N) 560 -2.7 -20.0°
Drops below altitude 10° 00:47:10 10° 70° (ENE) 1,483 -0.9 -20.1°
Sets 00:49:19 0° 76° (ENE) 2,344 0.1 -20.1°
